Regional Weather Roundup
Issued by NWS

Home | Current Version | Previous Version | Graphics & Text | Print | Product List | Glossary On
Versions: 1 2 3 4 5 6 7 8 9 10 11 12 13 14 15 16 17 18 19 20 21 22 23 24 25 26 27
000
ASUS45 KBOU 261507
RWRCO

WEATHER ROUNDUP FOR COLORADO
NATIONAL WEATHER SERVICE DENVER/BOULDER CO
900 AM MDT FRI AUG 26 2016

NOTE: "FAIR" INDICATES FEW OR NO CLOUDS BELOW 12000 FEET WITH NO
SIGNIFICANT WEATHER AND/OR OBSTRUCTIONS TO VISIBILITY.

COZ001>005-013-030-031-261600-
...NORTHWEST COLORADO...

CITY           SKY/WX    TMP DP  RH WIND       PRES   REMARKS
CRAIG          FAIR      58  38  47 E9        30.24S
HAYDEN         FAIR      54  37  54 E12       30.26S
MEEKER         FAIR      54  41  61 CALM      30.26S
MOUNT WERNER   NOT AVBL
STEAMBOAT SPGS FAIR      51  39  64 CALM      30.27F
WALDEN         FAIR      50  37  62 SE7       30.32F
$$

COZ006>008-011-261600-
...WEST CENTRAL VALLEYS...

CITY           SKY/WX    TMP DP  RH WIND       PRES   REMARKS
GRAND JUNCTION FAIR      61  47  59 E12       30.21S
MONTROSE       FAIR      54  46  74 S3        30.28S
EAGLE          SUNNY     48  45  87 CALM      30.33S
RIFLE          FAIR      53  49  86 CALM      30.26S
DELTA          NOT AVBL
NUCLA          FAIR     N/A N/A N/A CALM      30.31S
$$

COZ017>023-064>068-261600-
...SOUTHWEST COLORADO...

CITY           SKY/WX    TMP DP  RH WIND       PRES   REMARKS
DURANGO        FAIR      56  46  69 NE3       30.31S
CORTEZ         FAIR      58  53  84 CALM      30.27S
PAGOSA SPRINGS LGT RAIN  51  49  95 CALM      30.36S
TELLURIDE      CLOUDY    46  45  95 CALM      30.42S
WOLF CREEK PAS SNOW      34  34 100 SW10G21   30.55R VSB<1/4 WCI  26
$$

COZ009-010-012-014-032>034-037-058>063-261600-
...CENTRAL COLORADO...

CITY           SKY/WX    TMP DP  RH WIND       PRES   REMARKS
ASPEN          FAIR      48  43  82 CALM      30.32F
BUENA VISTA    FAIR      49  45  84 CALM      30.34S
COPPER MTN     FOG       37  34  87 NW9       30.51S VSB 1/4
BERTHOUD PASS  HAZE      32  18  55 NW16G22   30.50F VSB<1/4 WCI  21
COTTONWOOD PAS PTSUNNY   50  37  62 N3        30.41S
GUNNISON       FAIR      52  43  71 CALM      30.38S
KREMMLING      PTSUNNY   46  41  81 CALM      30.34S
LEADVILLE      FAIR      44  37  76 N6        30.40S
MONARCH PASS   FOG       34  34 100 W13       30.61R VSB<1/4 WCI  25
SALIDA         CLOUDY    52  47  83 CALM      30.39S
SUNLIGHT       FAIR      43  41  93 NE6       30.48S
WILKERSON PASS PTSUNNY   37  34  87 NW9       30.48S
$$

COZ069>075-261600-
...SAN LUIS VALLEY/SANGRE DE CRISTO MOUNTAINS...

CITY           SKY/WX    TMP DP  RH WIND       PRES   REMARKS
ALAMOSA        CLOUDY    50  45  83 CALM      30.32S
LA VETA PASS   LGT RAIN  43  41  93 S9G17     30.40F
SAGUACHE       PTSUNNY   50  41  71 NW12      30.35R
$$

COZ035-036-038>040-261600-
...NORTHERN COLORADO FRONT RANGE...

CITY           SKY/WX    TMP DP  RH WIND       PRES   REMARKS
DENVER INTL AP PTSUNNY   54  50  86 W9        30.18R
DMNS CITY PARK   N/A     57  50  76 N7        30.18F
AURORA         PTSUNNY   55  52  90 NW8       30.20R
FRONT RANGE AP NOT AVBL
ERIE MUNI ARPT FAIR      59  51  76 N5        30.18S
BOULDER MUN AP NOT AVBL
CENTENNIAL     PTSUNNY   56  48  74 NW7       30.19S
BROOMFIELD     PTSUNNY   57  52  82 N9        30.20R
FORT COLLINS   FAIR      57  50  77 N10       30.17F
LONGMONT       FAIR      62  53  74 CALM      30.18F
$$

COZ041-046-047-076>085-087-088-261600-
...PIKES PEAK/PALMER DIVIDE AND SOUTHERN FOOTHILLS...

CITY           SKY/WX    TMP DP  RH WIND       PRES   REMARKS
COLO. SPRINGS  PTSUNNY   55  49  80 CALM      30.23S
A. F. ACADEMY  MOSUNNY   55  48  76 S7        30.22F
SCHRIEVER AFB  NOT AVBL
ELLICOTT       NOT AVBL
FALCON         CLOUDY    53  49  89 SW6       30.26S
FORT CARSON    FAIR      56  49  78 NW3       30.20S
LIMON          CLOUDY    58  54  86 S13       30.19F
MONUMENT HILL  FAIR      55  45  67 W7        30.25S
TRINIDAD       PTSUNNY   61  50  67 SW12G21   30.19S
$$

COZ042>045-048>051-090-091-261600-
...NORTHEAST COLORADO...

CITY           SKY/WX    TMP DP  RH WIND       PRES   REMARKS
GREELEY ARPT   FAIR      55  54  94 NE6       30.16F
AKRON          LGT RAIN  58  55  90 S14       30.16F
BURLINGTON     CLOUDY    61  55  81 SE12      30.17F
WRAY           FAIR      64  54  68 SE13G18   30.15F
STERLING       LGT RAIN  61  55  82 S9        30.13F
HOLYOKE        NOT AVBL
FORT MORGAN    RAIN      58  55  90 CALM      30.16S
$$

COZ086-089-092>099-261600-
...SOUTHEAST COLORADO...

CITY           SKY/WX    TMP DP  RH WIND       PRES   REMARKS
PUEBLO         FAIR      61  53  75 CALM      30.16S
LA JUNTA       PTSUNNY   63  60  90 E9        30.14F FOG
LAMAR          FAIR      66  59  78 SE10      30.12F
SPRINGFIELD      N/A     63  60  90 S10       30.16S
$$




USA.gov is the U.S. government's official web portal to all federal, state and local government web resources and services.